Weather in Olga

Russia / Primorsky Krai     43°44′43″N   135°17′34″E
temp.,
°C
wind,
m/s
gust,
m/s
humid.,
%
clouds,
%
prec.,
mm/h
press.,
hPa
HPBL,
m
23 april, fri
fri2301:00+3w115774 0.0 102810
04:00+3wnw1155100 0.0 102610
07:00+5w1155100 0.0 102619
10:00+13ssw1236100 0.0 1025299
13:00+17sse3232100 0.0 1023401
16:00+18s243299 0.0 1021293
19:00+14ne1147100 0.0 102115
22:00+15nnw2251100 0.0 102131
24 april, sat
sat2401:00+13nw2261100 0.0 102119
04:00+12nw2268100 0.0 102019
07:00+12wnw2271100 0.0 102040
10:00+17wnw4752100 0.0 1019995
13:00+18wnw4545100 0.1 10171685
16:00+14nw4654100 0.8 10161073
19:00+7nnw3872100 1.3 1018865
22:00+5wnw2666100 1.8 1019289
25 april, sun
sun2501:00+3wnw22730 0.0 101939
04:00+1wnw23770 0.0 101943
07:00+2wnw23690 0.0 101869
10:00+11wnw5142774 0.0 10152706
13:00+12nw7142192 0.0 10143033
16:00+12nnw71317100 0.0 10143361
19:00+9n613290 0.0 10172639
22:00+3ne12550 0.0 102232
26 april, mon
mon2601:000w11740 0.0 102311
04:000wnw22520 0.0 102324
07:00+1wnw22450 0.0 102363
10:00+11sw12220 0.0 1022739
13:00+12s55252 0.0 10201103
16:00+12s58335 0.0 1018568
19:00+9ssw364899 0.0 1018270
22:00+4sw22655 0.0 101928
27 april, tue
tue2701:00+3wsw22696 0.0 101926
04:00+3wsw22656 0.0 101820
07:00+4wsw1265100 0.0 101773
10:00+11ssw3855100 0.0 1016511
13:00+13ssw61054100 0.0 1015770
16:00+12s61160100 0.0 1014643
19:00+7s4786100 0.0 1015299
22:00+5s2597100 0.0 1015167